�������l�o���
Date,Time,MP-1(��Sv/h),MP-2(��Sv/h),MP-3(��Sv/h),MP-4(��Sv/h),MP-5(��Sv/h),MP-6(��Sv/h),MP-7(��Sv/h),MP-8(��Sv/h),����,����(m/s),���J
2020/08/04,00:00,0.666,0.958,0.598,1.142,0.822,0.397,0.672,0.631,��쐼,6.0,��
2020/08/04,00:10,0.664,0.959,0.597,1.145,0.822,0.396,0.671,0.630,��,6.3,��
2020/08/04,00:20,0.666,0.962,0.597,1.144,0.822,0.397,0.670,0.630,��,5.6,��
2020/08/04,00:30,0.666,0.961,0.599,1.146,0.824,0.398,0.672,0.632,��,6.0,��
2020/08/04,00:40,0.667,0.960,0.599,1.144,0.823,0.397,0.672,0.630,��,5.7,��
2020/08/04,00:50,0.664,0.959,0.597,1.145,0.822,0.397,0.669,0.632,��,5.6,��
2020/08/04,01:00,0.665,0.960,0.600,1.145,0.822,0.397,0.671,0.632,��,5.9,��
2020/08/04,01:10,0.666,0.962,0.599,1.144,0.823,0.398,0.671,0.631,��,6.5,��
2020/08/04,01:20,0.667,0.959,0.596,1.142,0.821,0.396,0.672,0.630,��,7.1,��
2020/08/04,01:30,0.665,0.959,0.598,1.145,0.825,0.398,0.671,0.631,��쐼,6.7,��
2020/08/04,01:40,0.667,0.962,0.597,1.144,0.823,0.396,0.671,0.631,��,5.2,��
2020/08/04,01:50,0.665,0.959,0.597,1.144,0.823,0.396,0.671,0.631,��,4.8,��
2020/08/04,02:00,0.667,0.961,0.599,1.144,0.823,0.398,0.670,0.632,��,4.9,��
2020/08/04,02:10,0.666,0.960,0.598,1.146,0.823,0.396,0.670,0.632,��쐼,4.4,��
2020/08/04,02:20,0.666,0.959,0.598,1.145,0.822,0.396,0.671,0.631,��쐼,3.7,��
2020/08/04,02:30,0.667,0.961,0.599,1.142,0.823,0.397,0.672,0.631,��쐼,4.0,��
2020/08/04,02:40,0.669,0.960,0.599,1.145,0.822,0.397,0.671,0.631,��,4.2,��
2020/08/04,02:50,0.668,0.960,0.600,1.145,0.823,0.398,0.672,0.632,��,3.8,��
2020/08/04,03:00,0.668,0.960,0.599,1.142,0.821,0.397,0.672,0.630,��,4.3,��
2020/08/04,03:10,0.668,0.960,0.598,1.145,0.821,0.397,0.671,0.632,��,4.3,��
2020/08/04,03:20,0.666,0.961,0.600,1.144,0.823,0.397,0.673,0.630,��쐼,4.2,��
2020/08/04,03:30,0.669,0.961,0.598,1.145,0.824,0.397,0.672,0.633,��쐼,4.2,��
2020/08/04,03:40,0.669,0.963,0.598,1.143,0.824,0.397,0.674,0.631,��쐼,3.9,��
2020/08/04,03:50,0.668,0.960,0.598,1.144,0.823,0.398,0.674,0.632,��쐼,3.9,��
2020/08/04,04:00,0.668,0.961,0.601,1.147,0.824,0.398,0.673,0.632,�쐼,3.0,��
2020/08/04,04:10,0.670,0.961,0.599,1.145,0.825,0.397,0.673,0.633,�쐼,1.9,��
2020/08/04,04:20,0.667,0.959,0.600,1.147,0.824,0.398,0.671,0.632,���쐼,1.4,��
2020/08/04,04:30,0.669,0.960,0.600,1.147,0.823,0.398,0.674,0.634,�쐼,1.2,��
2020/08/04,04:40,0.670,0.961,0.601,1.147,0.824,0.397,0.673,0.631,�k��,1.4,��
2020/08/04,04:50,0.669,0.961,0.599,1.147,0.825,0.399,0.674,0.633,�k�k��,1.9,��
2020/08/04,05:00,0.670,0.962,0.600,1.144,0.822,0.397,0.671,0.632,�k�k��,2.0,��
2020/08/04,05:10,0.670,0.963,0.601,1.145,0.823,0.399,0.674,0.633,�k�k��,2.3,��
2020/08/04,05:20,0.670,0.960,0.598,1.146,0.825,0.398,0.673,0.633,�k,2.6,��
2020/08/04,05:30,0.669,0.959,0.600,1.146,0.823,0.397,0.673,0.632,�k,2.0,��
2020/08/04,05:40,0.668,0.959,0.598,1.145,0.824,0.398,0.672,0.631,�k�k��,1.7,��
2020/08/04,05:50,0.671,0.959,0.598,1.143,0.824,0.397,0.672,0.634,�k,1.4,��
2020/08/04,06:00,0.669,0.960,0.599,1.145,0.823,0.397,0.673,0.634,�k,1.2,��
2020/08/04,06:10,0.668,0.961,0.597,1.146,0.824,0.397,0.672,0.632,�k,1.5,��
2020/08/04,06:20,0.668,0.958,0.598,1.145,0.822,0.397,0.673,0.633,�k,0.9,��
2020/08/04,06:30,0.668,0.959,0.598,1.146,0.824,0.396,0.673,0.633,�k�k��,1.5,��
2020/08/04,06:40,0.668,0.958,0.597,1.146,0.823,0.396,0.673,0.633,�k�k��,1.5,��
2020/08/04,06:50,0.669,0.960,0.598,1.146,0.820,0.398,0.672,0.635,�k�k��,1.4,��
2020/08/04,07:00,0.671,0.961,0.599,1.146,0.824,0.397,0.672,0.633,�k�k��,0.9,��
2020/08/04,07:10,0.669,0.962,0.597,1.145,0.825,0.398,0.672,0.631,�k�k��,1.2,��
2020/08/04,07:20,0.673,0.960,0.599,1.144,0.824,0.398,0.674,0.631,�k,0.6,��
2020/08/04,07:30,0.671,0.958,0.599,1.145,0.826,0.395,0.674,0.632,-,CALM,��
2020/08/04,07:40,0.668,0.958,0.599,1.144,0.823,0.397,0.673,0.631,�k�k��,0.9,��
2020/08/04,07:50,0.670,0.960,0.599,1.147,0.822,0.397,0.673,0.632,���k��,1.2,��
2020/08/04,08:00,0.668,0.958,0.598,1.143,0.823,0.398,0.672,0.632,��,1.4,��
2020/08/04,08:10,0.668,0.959,0.598,1.143,0.824,0.396,0.672,0.631,�쓌,1.2,��
2020/08/04,08:20,0.670,0.958,0.596,1.144,0.822,0.396,0.671,0.630,�쓌,0.9,��
2020/08/04,08:30,0.668,0.956,0.596,1.142,0.822,0.397,0.673,0.629,�쓌,1.5,��
2020/08/04,08:40,0.668,0.956,0.597,1.144,0.821,0.396,0.673,0.630,�쓌,2.0,��
2020/08/04,08:50,0.669,0.956,0.595,1.142,0.821,0.397,0.673,0.630,���쓌,2.0,��
2020/08/04,09:00,0.670,0.956,0.596,1.143,0.821,0.397,0.674,0.631,���쓌,2.5,��
2020/08/04,09:10,0.669,0.956,0.597,1.145,0.824,0.396,0.674,0.632,�쓌,2.5,��
2020/08/04,09:20,0.669,0.953,0.599,1.143,0.825,0.396,0.675,0.630,�쓌,3.4,��
2020/08/04,09:30,0.669,0.956,0.598,1.145,0.824,0.397,0.674,0.631,��쓌,4.3,��
2020/08/04,09:40,0.665,0.957,0.597,1.146,0.824,0.397,0.674,0.631,��쓌,5.5,��
2020/08/04,09:50,0.667,0.957,0.597,1.144,0.822,0.395,0.676,0.629,��,5.9,��
2020/08/04,10:00,0.668,0.955,0.596,1.146,0.822,0.396,0.675,0.630,��,6.2,��
2020/08/04,10:10,0.666,0.955,0.599,1.142,0.825,0.397,0.673,0.630,��,6.4,��
2020/08/04,10:20,0.667,0.955,0.597,1.145,0.824,0.395,0.673,0.631,��,5.1,��
2020/08/04,10:30,0.666,0.957,0.598,1.145,0.825,0.396,0.673,0.630,��,6.9,��
2020/08/04,10:40,0.668,0.957,0.598,1.147,0.823,0.397,0.673,0.630,��,8.2,��
2020/08/04,10:50,0.669,0.959,0.599,1.147,0.825,0.397,0.673,0.632,��,7.3,��
2020/08/04,11:00,0.668,0.958,0.598,1.147,0.826,0.397,0.673,0.631,��,8.2,��
2020/08/04,11:10,0.669,0.959,0.596,1.144,0.826,0.397,0.674,0.630,��,7.6,��
2020/08/04,11:20,0.668,0.960,0.599,1.144,0.827,0.396,0.673,0.630,��,7.8,��
2020/08/04,11:30,0.668,0.959,0.599,1.145,0.825,0.397,0.674,0.631,��,7.3,��
2020/08/04,11:40,0.671,0.962,0.599,1.144,0.827,0.397,0.675,0.632,��,6.1,��
2020/08/04,11:50,0.669,0.962,0.598,1.145,0.826,0.397,0.674,0.631,��,7.2,��
2020/08/04,12:00,0.670,0.966,0.599,1.144,0.827,0.397,0.674,0.631,��,7.5,��
2020/08/04,12:10,0.670,0.963,0.600,1.145,0.827,0.396,0.674,0.631,��,7.4,��
2020/08/04,12:20,0.670,0.965,0.598,1.145,0.828,0.397,0.672,0.630,��쓌,9.1,��
2020/08/04,12:30,0.667,0.965,0.599,1.146,0.828,0.396,0.673,0.631,��,8.8,��
2020/08/04,12:40,0.669,0.964,0.601,1.145,0.826,0.396,0.674,0.633,��,8.7,��
2020/08/04,12:50,0.670,0.966,0.601,1.147,0.829,0.396,0.673,0.632,��,7.6,��
2020/08/04,13:00,0.669,0.962,0.598,1.145,0.827,0.394,0.673,0.631,��,8.4,��
2020/08/04,13:10,0.669,0.963,0.600,1.144,0.828,0.395,0.673,0.631,��,8.3,��
2020/08/04,13:20,0.668,0.964,0.598,1.146,0.829,0.394,0.673,0.631,��,8.2,��
2020/08/04,13:30,0.669,0.963,0.600,1.144,0.831,0.394,0.672,0.630,��,7.7,��
2020/08/04,13:40,0.670,0.963,0.598,1.148,0.828,0.394,0.672,0.631,��,9.5,��
2020/08/04,13:50,0.668,0.959,0.598,1.149,0.828,0.395,0.673,0.630,��,9.5,��
2020/08/04,14:00,0.670,0.967,0.601,1.147,0.830,0.392,0.673,0.629,��,9.8,��
2020/08/04,14:10,0.668,0.968,0.598,1.147,0.831,0.395,0.673,0.632,��,9.6,��
2020/08/04,14:20,0.669,0.970,0.599,1.149,0.827,0.395,0.672,0.632,��,8.0,��
2020/08/04,14:30,0.669,0.968,0.601,1.150,0.830,0.395,0.673,0.631,��,8.5,��
2020/08/04,14:40,0.671,0.965,0.600,1.148,0.829,0.394,0.673,0.633,��,8.5,��
2020/08/04,14:50,0.671,0.965,0.600,1.149,0.829,0.395,0.674,0.632,��,6.8,��
2020/08/04,15:00,0.669,0.966,0.601,1.150,0.831,0.395,0.674,0.632,��,6.8,��
2020/08/04,15:10,0.671,0.966,0.600,1.149,0.830,0.396,0.673,0.632,��,7.1,��
2020/08/04,15:20,0.671,0.965,0.601,1.149,0.829,0.394,0.674,0.633,��,7.7,��
2020/08/04,15:30,0.672,0.961,0.602,1.149,0.829,0.396,0.676,0.630,��,7.1,��
2020/08/04,15:40,0.671,0.959,0.601,1.150,0.829,0.397,0.675,0.633,��,6.8,��
2020/08/04,15:50,0.671,0.967,0.600,1.151,0.831,0.396,0.675,0.632,��,7.1,��
2020/08/04,16:00,0.673,0.967,0.600,1.149,0.831,0.396,0.676,0.632,��,6.7,��
2020/08/04,16:10,0.669,0.969,0.601,1.148,0.832,0.396,0.676,0.630,��,6.8,��
2020/08/04,16:20,0.672,0.971,0.601,1.150,0.832,0.398,0.677,0.632,��,7.7,��
2020/08/04,16:30,0.670,0.968,0.600,1.152,0.831,0.396,0.674,0.632,��,7.3,��
2020/08/04,16:40,0.673,0.968,0.602,1.151,0.832,0.399,0.674,0.633,��,6.6,��
2020/08/04,16:50,0.671,0.970,0.600,1.151,0.833,0.398,0.673,0.632,��,7.7,��
2020/08/04,17:00,0.672,0.970,0.600,1.152,0.832,0.398,0.674,0.631,��,7.8,��
2020/08/04,17:10,0.670,0.969,0.601,1.150,0.830,0.399,0.674,0.631,��,8.5,��
2020/08/04,17:20,0.672,0.969,0.599,1.148,0.832,0.398,0.673,0.632,��,8.1,��
2020/08/04,17:30,0.673,0.969,0.602,1.153,0.831,0.398,0.675,0.634,��,8.7,��
2020/08/04,17:40,0.673,0.969,0.598,1.148,0.832,0.397,0.674,0.633,��,7.4,��
2020/08/04,17:50,0.670,0.970,0.599,1.152,0.830,0.397,0.674,0.633,��,7.0,��
2020/08/04,18:00,0.672,0.970,0.601,1.152,0.831,0.398,0.673,0.632,��,6.1,��
2020/08/04,18:10,0.673,0.971,0.601,1.153,0.832,0.398,0.674,0.632,��,6.7,��
2020/08/04,18:20,0.674,0.969,0.601,1.152,0.831,0.396,0.671,0.632,��쐼,6.5,��
2020/08/04,18:30,0.672,0.969,0.602,1.151,0.832,0.399,0.674,0.634,��,6.7,��
2020/08/04,18:40,0.672,0.969,0.600,1.150,0.832,0.398,0.673,0.632,��,5.5,��
2020/08/04,18:50,0.672,0.970,0.603,1.152,0.832,0.398,0.673,0.632,��쐼,3.4,��
2020/08/04,19:00,0.672,0.970,0.601,1.152,0.832,0.397,0.672,0.633,��쐼,1.7,��
2020/08/04,19:10,0.674,0.971,0.601,1.153,0.835,0.399,0.672,0.633,��쐼,3.0,��
2020/08/04,19:20,0.670,0.971,0.601,1.151,0.835,0.399,0.674,0.633,��쐼,2.5,��
2020/08/04,19:30,0.673,0.971,0.602,1.153,0.832,0.398,0.673,0.632,��,2.6,��
2020/08/04,19:40,0.675,0.973,0.602,1.153,0.833,0.399,0.674,0.632,��쐼,0.8,��
2020/08/04,19:50,0.672,0.973,0.600,1.153,0.832,0.398,0.674,0.633,-,CALM,��
2020/08/04,20:00,0.672,0.972,0.600,1.153,0.834,0.399,0.672,0.632,�쓌,0.6,��
2020/08/04,20:10,0.670,0.972,0.603,1.153,0.832,0.398,0.672,0.634,�쓌,1.9,��
2020/08/04,20:20,0.674,0.971,0.603,1.153,0.835,0.399,0.674,0.631,��쓌,2.6,��
2020/08/04,20:30,0.672,0.972,0.604,1.153,0.835,0.398,0.674,0.631,��,2.0,��
2020/08/04,20:40,0.671,0.972,0.604,1.155,0.832,0.400,0.674,0.633,��,3.1,��
2020/08/04,20:50,0.672,0.973,0.603,1.154,0.833,0.399,0.674,0.632,��쐼,3.9,��
2020/08/04,21:00,0.672,0.970,0.603,1.154,0.835,0.398,0.673,0.633,��쐼,3.9,��
2020/08/04,21:10,0.672,0.973,0.601,1.153,0.832,0.399,0.673,0.632,��쐼,4.2,��
2020/08/04,21:20,0.672,0.972,0.603,1.153,0.833,0.400,0.674,0.633,��쐼,4.1,��
2020/08/04,21:30,0.676,0.972,0.603,1.152,0.832,0.399,0.673,0.633,�쐼,3.1,��
2020/08/04,21:40,0.672,0.972,0.604,1.154,0.834,0.400,0.675,0.633,��쐼,3.6,��
2020/08/04,21:50,0.671,0.972,0.602,1.155,0.833,0.399,0.674,0.633,��쐼,4.1,��
2020/08/04,22:00,0.674,0.974,0.602,1.153,0.834,0.399,0.673,0.634,��쐼,3.9,��
2020/08/04,22:10,0.673,0.972,0.602,1.157,0.834,0.399,0.672,0.633,��쐼,4.2,��
2020/08/04,22:20,0.674,0.972,0.604,1.154,0.834,0.398,0.675,0.634,��,4.0,��
2020/08/04,22:30,0.673,0.972,0.603,1.154,0.833,0.398,0.672,0.632,��쐼,4.0,��
2020/08/04,22:40,0.673,0.972,0.603,1.156,0.835,0.401,0.674,0.633,��쐼,3.7,��
2020/08/04,22:50,0.674,0.972,0.603,1.154,0.835,0.400,0.674,0.634,��쐼,3.4,��
2020/08/04,23:00,0.674,0.972,0.604,1.156,0.835,0.402,0.676,0.634,��쐼,4.3,��
2020/08/04,23:10,0.675,0.972,0.604,1.155,0.836,0.399,0.674,0.634,��쐼,6.1,��
2020/08/04,23:20,0.670,0.971,0.603,1.157,0.835,0.399,0.675,0.635,��쐼,6.5,��
2020/08/04,23:30,0.673,0.973,0.605,1.157,0.834,0.397,0.674,0.634,��쐼,5.6,��
2020/08/04,23:40,0.672,0.971,0.605,1.157,0.835,0.399,0.674,0.634,��쐼,4.9,��
2020/08/04,23:50,0.673,0.972,0.604,1.155,0.835,0.399,0.675,0.633,��쐼,4.3,��
